Theta_e
290 284 284 285 291 295 299 301 301 305 318 319 322 337 342 353 355 356 355 356 358 362 361 359 358 358 359 360 360 360 360 360
290 286 289 290 296 297 296 300 302 310 309 315 316 330 345 355 356 352 352 355 360 362 362 361 358 357 358 359 360 360 360 359
286 287 291 295 297 295 297 297 300 307 304 305 310 337 352 353 354 350 350 355 359 362 362 361 358 358 358 359 359 360 360 360
282 287 292 294 295 296 296 298 301 305 304 302 308 311 343 351 350 352 351 355 357 361 362 361 360 359 358 358 359 360 360 360
286 287 290 294 296 295 295 297 299 301 302 303 304 305 308 347 348 351 353 354 355 357 360 361 360 359 359 358 358 359 359 359
287 287 290 295 296 294 296 297 302 303 298 296 303 307 342 346 345 347 350 352 351 356 357 356 357 360 359 358 358 358 359 359
287 288 291 294 294 298 300 299 300 302 303 307 307 306 327 329 338 343 347 347 349 352 357 358 355 356 359 358 357 358 359 359
291 291 294 293 293 296 298 299 298 301 305 308 307 307 302 303 323 333 341 345 347 350 354 356 354 354 354 354 353 354 354 354
293 294 296 295 297 297 296 296 299 300 302 304 304 303 302 301 303 324 333 340 347 349 351 353 352 352 353 352 354 354 353 353
298 298 296 296 298 297 298 300 301 303 303 304 303 302 302 302 302 302 311 335 343 346 348 351 351 350 351 350 350 350 350 352
299 298 296 299 298 298 298 303 304 304 304 303 303 304 304 304 304 303 302 307 331 341 344 347 348 349 349 349 348 349 349 350
298 298 297 297 297 297 301 303 309 309 308 309 309 310 310 311 309 308 305 304 307 326 341 344 347 347 348 349 348 348 348 349
297 298 297 297 295 297 301 307 307 307 309 309 310 310 310 311 311 311 311 307 306 309 335 339 343 345 347 348 349 347 347 348
295 297 298 297 291 301 304 306 304 306 307 308 308 309 310 312 311 313 313 312 311 311 317 335 337 341 346 347 347 347 347 347
292 296 297 297 291 302 305 304 303 304 305 307 307 309 310 312 312 312 312 312 313 314 312 321 334 335 341 345 346 347 347 348
288 293 296 292 294 300 303 303 303 303 304 305 307 308 310 312 313 313 313 313 313 314 314 314 325 334 336 339 344 346 346 347
291 295 293 291 296 299 302 302 302 303 303 304 306 309 311 312 313 313 313 312 312 312 314 315 317 330 333 335 339 341 343 345
293 296 293 292 293 299 301 301 302 303 303 304 306 308 309 310 311 311 311 311 312 312 313 314 315 321 330 334 337 339 341 342
290 293 294 291 291 296 301 303 304 304 305 305 305 305 307 309 310 311 311 311 312 312 312 313 314 316 320 326 330 333 334 337
293 290 285 292 282 291 297 299 301 302 302 303 305 306 307 308 308 310 311 312 312 312 312 313 314 313 313 315 318 329 335 336
Wind_Speed
6 4 3 4 4 8 9 10 4 1 4 1 3 4 4 4 9 10 9 7 8 12 13 14 14 14 14 15 15 16 16 16
6 3 4 4 8 5 11 6 3 3 6 4 3 4 5 6 8 9 7 6 9 11 13 13 15 14 13 14 15 15 15 15
4 2 4 5 6 6 6 3 7 3 2 3 5 6 6 5 6 5 5 5 7 12 12 13 15 15 15 14 13 13 15 15
2 3 4 6 4 6 6 7 6 6 4 2 7 5 4 3 6 6 6 4 5 10 11 13 14 15 15 15 14 13 12 13
5 2 4 3 6 4 5 6 6 5 4 0 7 8 5 2 5 5 6 4 2 3 7 11 12 14 15 16 16 15 13 11
2 0 1 3 5 1 2 3 5 2 3 1 2 6 6 6 5 5 4 5 5 4 3 3 4 11 12 12 14 15 15 14
4 4 3 4 5 3 2 2 4 3 2 3 5 2 6 3 2 3 2 4 4 5 5 5 4 6 9 13 13 13 13 14
3 1 1 4 1 3 2 5 2 4 5 4 2 1 5 4 5 4 6 7 7 6 10 8 8 6 5 5 4 4 5 6
2 4 1 3 4 2 2 6 7 7 6 5 3 5 5 4 6 7 6 4 8 9 8 10 9 4 4 5 4 5 5 6
4 3 2 4 2 3 5 10 2 7 6 5 7 8 9 10 8 5 7 7 6 8 9 11 6 5 6 6 6 6 9 8
7 9 7 6 5 6 5 9 9 8 8 10 10 10 8 8 6 5 6 8 8 5 6 6 8 7 8 8 7 8 7 9
7 5 3 2 3 3 7 8 13 15 13 12 11 9 9 12 9 11 9 8 8 7 6 7 9 8 7 8 8 7 7 9
2 4 4 1 3 7 7 8 13 12 8 8 7 8 9 6 5 6 7 9 9 8 5 7 10 9 8 6 7 8 9 11
5 6 3 3 6 9 7 13 9 9 9 8 8 5 6 7 6 6 7 10 9 8 8 6 6 5 7 7 7 8 8 8
7 3 2 5 1 6 7 9 8 7 7 9 10 11 7 7 6 7 6 7 10 10 9 8 6 5 5 6 8 8 6 8
4 3 4 3 2 4 6 8 6 7 8 10 10 8 10 9 6 6 6 6 7 8 7 8 6 4 3 3 7 6 8 9
5 4 3 1 5 4 1 5 8 8 8 8 9 8 8 7 8 12 9 8 6 8 8 6 3 3 3 7 7 7 8 13
6 4 3 4 5 4 2 1 1 4 7 7 11 13 11 9 9 8 9 8 9 7 7 6 3 3 4 4 5 8 6 9
5 3 3 1 1 4 4 2 3 2 4 6 8 12 15 17 13 12 12 12 11 8 8 7 7 4 4 4 4 4 5 8
4 4 3 3 5 4 4 5 4 6 6 7 10 10 11 14 16 15 14 12 9 8 9 9 8 6 6 7 8 6 8 8
Wind_Direction
86 94 156 239 265 278 282 277 265 133 76 81 1 346 317 42 114 113 106 113 144 144 144 146 146 148 150 148 146 149 151 151
80 149 243 225 292 298 313 356 30 345 51 32 315 299 349 103 110 110 113 123 152 149 147 149 150 152 155 154 154 157 159 158
82 247 259 255 281 301 329 19 347 352 35 51 354 336 92 95 97 112 115 131 153 160 159 158 159 160 160 161 163 167 166 166
136 263 264 280 290 327 8 354 7 48 84 35 319 17 341 119 134 126 132 132 153 174 173 168 170 171 167 167 168 173 175 174
170 243 317 316 328 32 338 358 351 302 83 89 336 324 339 57 74 102 116 120 130 174 190 192 185 182 177 174 172 173 178 181
214 151 213 311 353 222 61 304 285 288 35 134 285 349 73 68 65 75 122 145 155 160 197 207 201 197 191 188 183 179 179 181
204 152 300 321 12 307 312 352 321 337 163 212 133 71 77 67 77 114 167 186 179 175 189 195 198 212 208 206 199 194 191 188
216 154 350 284 216 297 335 325 290 313 290 259 290 177 146 171 190 208 205 201 191 186 197 197 216 203 185 196 192 207 207 199
238 225 345 251 296 238 267 298 225 258 285 299 300 296 274 208 207 216 222 204 200 192 186 199 209 187 206 215 207 191 194 201
270 230 301 231 218 227 203 240 242 259 293 283 296 318 324 319 304 270 226 225 207 193 182 198 193 188 199 208 210 217 216 198
263 271 246 298 256 227 280 346 348 339 348 337 356 351 11 352 333 321 297 308 287 203 205 207 198 190 185 200 208 213 207 214
281 327 251 245 330 72 19 1 47 55 48 44 43 19 31 25 2 1 330 293 285 264 237 190 200 211 211 197 198 194 203 212
312 338 309 58 41 73 345 65 51 41 43 31 23 19 27 6 360 339 332 328 322 287 243 229 215 208 199 213 214 203 203 208
301 343 323 92 278 358 16 73 46 32 19 16 1 8 4 359 348 346 348 352 336 341 317 252 246 242 219 200 202 213 216 207
325 339 329 43 318 340 6 53 40 14 11 1 356 0 353 346 339 338 346 348 346 346 344 314 256 231 252 249 208 206 212 219
286 279 16 4 114 343 1 47 29 -0 3 2 357 341 323 324 334 340 345 351 338 333 336 338 308 260 232 238 234 221 207 210
268 278 359 261 165 192 337 25 27 5 358 345 340 310 318 328 336 340 354 346 343 333 330 341 334 310 262 240 234 235 223 212
281 268 143 276 188 196 218 228 345 332 339 327 329 341 347 340 342 336 325 325 327 319 315 310 289 263 277 284 261 239 232 242
245 316 303 53 319 214 236 260 335 331 295 310 316 323 330 336 340 337 336 329 318 306 296 287 278 283 272 264 256 240 221 219
268 24 280 20 273 266 236 288 322 320 322 317 331 326 328 329 330 331 324 313 298 287 286 288 288 282 255 260 260 258 246 230